Regional Weather Roundup
Issued by NWS Columbia, SC

Home | Current Version | Previous Version | Text Only | Print | Product List | Glossary On
Versions: 1 2 3 4 5 6 7 8 9 10 11 12 13 14 15 16 17 18 19 20 21 22 23 24 25 26 27
000
ASUS42 KCAE 250310
RWRCAE
REGIONAL WEATHER ROUNDUP
NATIONAL WEATHER SERVICE COLUMBIA SC
1100 PM EDT TUE APR 24 2018

NOTE: "FAIR" INDICATES FEW OR NO CLOUDS BELOW 12,000 FEET WITH NO
SIGNIFICANT WEATHER AND/OR OBSTRUCTIONS TO VISIBILITY.

NOT ALL STATIONS ARE QUALITY CONTROLLED BY THE NATIONAL
WEATHER SERVICE. USE DATA WITH CAUTION...ESPECIALLY
DEWPOINT OBSERVATIONS.

SCZ001>056-GAZ040-063>065-077-250400-
...UPSTATE SOUTH CAROLINA...

CITY           SKY/WX    TMP DP  RH WIND       PRES   REMARKS
ANDERSON       CLOUDY    61  58  90 W6        29.83S
LIBERTY        CLOUDY    59  59 100 CALM      29.82S FOG
SPARTANBURG    CLOUDY    59  55  88 NW5       29.82S
CLEMSON        CLOUDY    61  58  90 W8        29.84S
GREENVILLE     CLOUDY    60  60 100 CALM      29.83F
GREENWOOD      CLOUDY    59  58  96 W5        29.84S
GREER          CLOUDY    59  59 100 CALM      29.83S
ROCK HILL      LGT RAIN  62  62 100 CALM      29.80S FOG
CHESTER        CLOUDY    61  61 100 S3        29.81S
LAURENS        CLOUDY    61  59  94 CALM      29.83R


...CENTRAL SOUTH CAROLINA...

CITY           SKY/WX    TMP DP  RH WIND       PRES   REMARKS
COLUMBIA APT   CLOUDY    68  59  73 SW7       29.82R
COLUMBIA OWENS CLOUDY    68  56  65 W7        29.83R
ORANGEBURG     CLOUDY    66  55  67 SW10      29.84R
NEWBERRY       FAIR      61  61 100 SW7       29.86R
AIKEN          CLOUDY    63  57  82 SW7       29.88S
BARNWELL       CLOUDY    64  57  77 CALM      29.86R
MANNING        MOCLDY    63  52  67 SW7       29.83S
CAMDEN         DRIZZLE   64  59  82 W3G14     29.82S
LANCASTER      CLOUDY    61  61 100 SW5       29.81R
WINNSBORO      CLOUDY    61  61 100 SW3       29.81S


...EASTERN AND COASTAL SOUTH CAROLINA...

CITY           SKY/WX    TMP DP  RH WIND       PRES   REMARKS
MYRTLE BEACH   MOCLDY    65  61  87 S7        29.84R
N MYRTLE BCH   CLOUDY    65  62  90 SW16      29.83R
CONWAY         FAIR      63  61  94 SW6       29.83S
MARION         CLOUDY    63  59  88 S6        29.82S
HARTSVILLE     FAIR      59  55  88 CALM      29.81R
FLORENCE       MOCLDY    66  58  75 SW6       29.81R
DARLINGTON     MOCLDY    68  58  70 W5        29.81R
CHARLESTON APT FAIR      66  60  81 SW9       29.85S
MOUNT PLEASANT MOCLDY    66  63  88 SW5       29.86R
WALTERBORO     CLOUDY    64  55  72 CALM      29.87S
BEAUFORT       CLOUDY    66  58  75 SW5       29.87R


...EASTERN GEORGIA...

CITY           SKY/WX    TMP DP  RH WIND       PRES   REMARKS
AUGUSTA BUSH F CLOUDY    65  57  75 SW8       29.85R
AUGUSTA DANIEL CLOUDY    66  56  70 W5        29.86R
THOMSON        CLOUDY    63  56  78 NW5       29.91S
WASHINGTON     FAIR      61  55  82 W7        29.86S
CLAXTON        CLOUDY    65  60  85 CALM      29.90R
SYLVANIA       CLOUDY    66  60  80 CALM      29.89R
STATESBORO     CLOUDY    67  55  65 CALM      29.89R
SAVANNAH       MOCLDY    67  56  67 SW7       29.89R


...SOUTHERN NORTH CAROLINA...

CITY           SKY/WX    TMP DP  RH WIND       PRES   REMARKS
CHARLOTTE      CLOUDY    62  62 100 CALM      29.80S
MONROE         LGT RAIN  61  61 100 NE3       29.78F
WADESBORO      CLOUDY    64  61  91 CALM      29.79S
ROCKINGHAM     FAIR      65  56  71 S5        29.80S
RUTHERFORDTON  CLOUDY    58  58 100 CALM      29.83S
ASHEVILLE      LGT RAIN  55  53  93 N8        29.86S

$$




USA.gov is the U.S. government's official web portal to all federal, state and local government web resources and services.